Regional Weather Roundup
Issued by NWS

Home | Current Version | Previous Version | Text Only | Print | Product List | Glossary On
Versions: 1 2 3 4 5 6 7 8 9 10 11 12 13 14 15 16 17 18 19 20 21 22 23 24 25 26 27 28 29 30 31 32 33 34 35 36 37 38 39 40 41 42 43 44 45 46 47 48 49 50
030
ASUS43 KMKX 131959
RWRWI

WISCONSIN REGIONAL WEATHER ROUNDUP
NATIONAL WEATHER SERVICE MILWAUKEE/SULLIVAN WI
200 PM CST WED DEC 13 2017

NOTE: "FAIR" INDICATES FEW OR NO CLOUDS BELOW 12,000 FEET WITH NO
SIGNIFICANT WEATHER AND/OR OBSTRUCTIONS TO VISIBILITY.

WIZ001-002-006>008-014>016-023>028-132100-
NORTHWEST WISCONSIN

CITY           SKY/WX    TMP DP  RH WIND       PRES   REMARKS
SUPERIOR ARPT  CLOUDY    26  20  79 E14G20    29.66R HAZE    WCI  14
ASHLAND        LGT SNOW  19  15  84 NE10      29.64R FOG     WCI   7
HAYWARD        LGT SNOW  19  12  74 N13       29.57R WCI   6
SIREN          CLOUDY    23  17  77 N13G18    29.59R WCI  11
CUMBERLAND     FLURRIES  19  12  73 N15       29.56R WCI   5
RICE LAKE      FLURRIES  21  14  75 N7        29.57R WCI  12
CHETEK         CLOUDY    20  14  76 N9G18     29.54R WCI  10
LADYSMITH      LGT SNOW  19  13  76 N13       29.53R WCI   6
EAU CLAIRE     NOT AVBL
MENOMONIE      CLOUDY    24  17  75 NW14G22   29.54R WCI  11
NEW RICHMOND   CLOUDY    23  17  77 NW17G25   29.58R WCI   9
OSCEOLA        CLOUDY    24  18  80 NW12G17   29.63R WCI  12
$$

WIZ003>005-009-010-017-018-132100-
NORTH CENTRAL WISCONSIN

CITY           SKY/WX    TMP DP  RH WIND       PRES   REMARKS
MANITOWISH WTR LGT SNOW  14  12  92 NE7       29.51R WCI   4
ARBOR VITAE    LGT SNOW  18  14  84 NE10      29.49R WCI   6
WOODRUFF       LGT SNOW  18  14  84 NE10      29.49R WCI   6
RHINELANDER    LGT SNOW  17  14  88 NE10      29.47R VSB 3/4 WCI   5
EAGLE RIVER    LGT SNOW  16  11  81 NE10      29.48R WCI   3
LAND O LAKES   LGT SNOW  17  13  85 N9        29.52R WCI   5
PHILLIPS       LGT SNOW  15  12  88 N10       29.49R WCI   3
TOMAHAWK       LGT SNOW  17  14  86 N7        29.48R VSB 3/4 WCI   8
MEDFORD        LGT SNOW  17  12  82 N12       29.43R WCI   4
MERRILL        LGT SNOW  20  15  83 N10       29.44R WCI   8
$$

WIZ029-030-035-036-043>047-132100-
CENTRAL WISCONSIN

CITY           SKY/WX    TMP DP  RH WIND       PRES   REMARKS
WAUSAU         LGT SNOW  20  16  84 N10       29.41R FOG     WCI   9
MOSINEE        NOT AVBL
MARSHFIELD     LGT SNOW  19  14  81 N14       29.42R WCI   6
STEVENS POINT  LGT SNOW  19  17  91 N8        29.39R WCI   9
WAUPACA        LGT SNOW  26  20  80 NW8       29.37R WCI  17
WAUTOMA        LGT SNOW  25  20  81 NW12      29.37R WCI  14
WISC RAPIDS    LGT SNOW  21  16  81 N14       29.42R WCI   8
CAMP DOUGLAS   CLOUDY    23  16  74 NW12      29.40R WCI  12
$$

WIZ011>013-019>022-031-037>040-048>050-132100-
NORTHEAST WISCONSIN

CITY           SKY/WX    TMP DP  RH WIND       PRES   REMARKS
ANTIGO         LGT SNOW  18  15  87 NE20      29.39R WCI   2
SHAWANO        LGT SNOW  29  25  87 NE14G20   29.38R WCI  18
OCONTO         CLOUDY    26  24  90 E10G20    29.41S VSB 1/2 WCI  16
STURGEON BAY   SNOW      25  23  92 E16       29.42S VSB 1/2 WCI  12
GREEN BAY      LGT SNOW  28  23  81 NE12G22   29.37R VSB 3/4 WCI  18
MANITOWOC      LGT SNOW  26  22  84 E22       29.34  FOG     WCI  12
APPLETON       LGT SNOW  27  21  80 NW7       29.30S WCI  19
CLINTONVILLE   LGT SNOW  27  23  86 NE13      29.36S WCI  16
OSHKOSH        LGT SNOW  27  23  85 NW6       29.32R FOG     WCI  20
$$

WIZ032>034-041-042-053>061-132100-
SOUTHWEST WISCONSIN

CITY           SKY/WX    TMP DP  RH WIND       PRES   REMARKS
LA CROSSE      CLOUDY    26  19  74 NW22G35   29.50R WCI  12
SPARTA         CLOUDY    25  19  79 NW14      29.45R WCI  13
VIROQUA        CLOUDY    25  22  88 NW18G24   29.42R WCI  12
BOSCOBEL       CLOUDY    32  22  66 NW17G29   29.44R WCI  21
PRAIRIE DU CHI CLOUDY    32  23  68 NW24G33   29.44R WCI  19
PLATTEVILLE    CLOUDY    33  25  73 NW29G35   29.37R WCI  19
$$

WIZ056-057-062-063-064-067-068-132100-
SOUTH CENTRAL WISCONSIN

CITY           SKY/WX    TMP DP  RH WIND       PRES   REMARKS
REEDSBURG      CLOUDY    25  19  80 NW13G18   29.39R WCI  13
BARABOO/DELLS  LGT SNOW  26  20  79 NW13G18   29.35R WCI  15
LONE ROCK      CLOUDY    31  23  72 NW18G29   29.40R WCI  19
MINERAL POINT  CLOUDY    32  27  80 NW20G29   29.35R WCI  20
MADISON        CLOUDY    31  21  66 NW15G28   29.32R WCI  20
MIDDLETON      CLOUDY    33  23  68 NW17      29.31R WCI  21
WATERTOWN      CLOUDY    30  27  86 N6        29.28R WCI  24
MONROE         CLOUDY    34  25  69 NW18G29   29.29R WCI  23
JANESVILLE     CLOUDY    36  25  64 NW17      29.28R WCI  25
$$

WIZ051-052-058>065-066-070>072-132100-
SOUTHEAST WISCONSIN

CITY           SKY/WX    TMP DP  RH WIND       PRES   REMARKS
MILWAUKEE      LGT SNOW  30  27  88 NW5       29.27S VSB 3/4 WCI  25
WAUKESHA       LGT SNOW  27  25  93 NW5       29.28S WCI  21
MILWAUKEE/TIMM SNOW      28  25  86 CALM      29.28F VSB 1/2
RACINE         LGT SNOW  32  25  75 NW5       29.28S WCI  27
BURLINGTON       N/A    N/A N/A N/A MISG        N/A
KENOSHA        CLOUDY    35  23  61 W7        29.25F WCI  29
FOND DU LAC    LGT SNOW  27  22  81 N6        29.30S WCI  20
SHEBOYGAN      LGT SNOW  28  26  92 CALM      29.30S VSB 3/4
WEST BEND      MIX PCPN  28  27  93 N3        29.28S
JUNEAU         LGT SNOW  27  24  91 CALM      29.30R
$$

LSZ147-162-132100-
LAKE SUPERIOR

STATION/POSITION TIME  TEMP    WIND        PRES    WAVE
                       AIR SEA DIR/SP/G            HT/PER
                 (UTC) (F)     (DEG/KT/KT) (MB)    (FT/S)
DEVILS ISLAND    1900   23      90/ 18/ 21 1004.6R
SAXON HARBOR     1930   20                 1003.0R
$$

LMZ867-665-643>646-132100-
LAKE MICHIGAN

STATION/POSITION TIME  TEMP    WIND        PRES    WAVE
                       AIR SEA DIR/SP/G            HT/PER
                 (UTC) (F)     (DEG/KT/KT) (MB)    (FT/S)
NORTHPORT PIER   1940   25      90/ 20/ 25  998.6S
KEWAUNEE LAKESHO 1930   27     100/ 19/ 24  994.2R
SHEBOYGAN LAKESH 1800   31     190/ 15/ 18  993.7F
PORT WASHINGTON  1940   30      CALM  /  3  993.2F
MILWAUKEE LAKESH 1930   29     310/  1/  2   N/A
KENOSHA   LAKESH 1800   32     200/ 10/ 12  993.2
$$

TC  - TEMPERATURE IN CELSIUS
VSB - VISIBILITY IN STATUTE MILES
WCI - WIND CHILL INDEX
HX  - HEAT INDEX





USA.gov is the U.S. government's official web portal to all federal, state and local government web resources and services.